Вернуться в каталог

CZ-6A DEB

АктивенSSO
NORAD 54953·DEBRIS·🇨🇳 China

Запущен Nov 11, 2022 с Taiyuan Satellite Launch Center

Loading…

Ближайшие Пролёты (ближайшие 24 часа)

TLE

СвежийSource: Space-Track

Эпоха: Sep 14, 2026, 14:24 UTC

1 54953U 22151SS  26257.60007972  .00002466  00000-0  55230-3 0  9996
2 54953  98.5398 305.2047 0078494   3.4554 356.7168 14.55718334202656

Отслеживайте CZ-6A DEB в реальном времени с AllMySat

Download on the App Store